{"data":{"norad_id":62824,"intl_designator":"2025-018U","name":"STARLINK-32852","alt_names":[],"object_type":"PAYLOAD","status":"ACTIVE","operator":null,"country":"US","launch_date":"2025-01-24","launch_site_code":"AFWTR","launch_vehicle":null,"mission":null,"orbit_class":"UNKNOWN","rcs_meters":null,"size_class":null,"mass_kg":null,"dimensions":null,"purposes":["comms"],"wikipedia_slug":null,"has_3d_model":false,"image_url":null,"decayed_at":null,"tle_current":{"epoch":"2026-09-21T21:52:50.959488Z","epoch_age_seconds":46262,"freshness":"FRESH","line1":"1 62824U 25018U   26264.91170092  .00005862  00000+0  18450-3 0  9998","line2":"2 62824  53.1591 117.2634 0001757 143.1945 216.9179 15.34399465 93230","mean_motion":15.34399465,"eccentricity":0.0001757,"inclination_deg":53.1591,"raan_deg":117.2634,"arg_perigee_deg":143.1945,"mean_anomaly_deg":216.9179,"bstar":0.0001845,"rev_number":9323,"period_min":93.84779080329,"perigee_km":461.50289443072,"apogee_km":463.9067662499,"semimajor_km":6840.8418303403,"source":"CELESTRAK","updated_at":"2026-09-22T09:00:49.670040Z"}}}